Theta_e
338 340 340 337 337 339 339 340 339 339 338 337 336 335 334 333 332 332 331 332 333 335 336 337 337 337 337 337 336 335 336 336 336 335 335 336 338 338 339 339 339 338 340 340 339 340 339 338 339 339 340 339 338 339 340 340 340 340 340 340 340 338 334 331 330 329 328 327 327 326 327 330 331 332 333 329 326 326 327 328 323 325 331 332 335
338 340 340 337 336 338 338 338 338 337 335 333 334 333 332 332 331 331 331 333 335 336 337 337 337 337 337 337 337 336 337 335 334 333 332 334 336 337 338 338 338 338 338 338 339 340 339 338 338 339 340 338 338 339 339 339 340 340 340 340 340 339 336 333 332 332 331 331 332 332 330 330 331 332 335 332 328 328 329 329 325 329 336 334 334
338 340 340 337 334 335 336 336 336 334 332 332 332 332 332 331 330 330 331 333 335 335 336 337 336 336 336 337 337 337 337 336 334 333 332 332 332 334 336 337 338 337 337 338 339 339 339 338 337 338 338 337 337 339 339 338 338 339 338 339 339 339 338 336 335 335 334 333 333 334 332 331 333 333 333 332 330 330 330 331 326 329 336 336 334
339 339 339 339 334 333 335 334 334 332 332 331 331 331 331 330 330 330 332 333 334 334 334 336 336 335 335 336 336 336 336 336 336 335 334 333 332 333 334 334 336 337 337 338 338 338 338 339 338 338 338 337 337 338 339 338 338 337 336 337 337 337 337 336 337 337 336 336 335 335 335 335 337 337 336 335 334 332 331 333 330 328 336 337 335
339 338 339 340 334 331 333 333 334 333 333 332 331 331 330 330 331 332 333 333 333 333 332 334 335 334 334 335 335 336 335 335 336 335 335 335 335 335 334 334 334 336 337 337 337 337 337 338 337 338 338 338 338 338 339 339 338 337 336 335 335 334 334 334 335 336 338 339 338 337 338 338 338 337 337 338 337 335 333 334 334 331 334 337 336
339 338 338 339 334 329 331 332 333 333 332 332 331 331 331 332 333 334 333 333 332 331 332 333 335 334 334 335 334 334 334 334 334 334 334 334 334 334 334 334 334 335 337 337 337 337 337 337 337 337 338 338 338 338 338 339 338 337 337 337 336 334 333 332 331 331 333 336 338 338 338 338 338 338 337 338 338 338 336 335 335 334 333 335 337
338 337 337 336 331 327 328 329 330 331 331 332 332 332 332 332 333 333 333 333 332 331 332 334 335 334 334 334 332 332 333 333 333 333 333 332 332 332 332 333 332 333 334 335 336 336 337 338 338 338 338 338 338 337 338 338 338 338 337 338 337 336 334 332 330 328 328 330 332 333 336 338 339 338 337 337 337 337 338 336 334 335 334 336 338
336 337 336 332 327 326 327 327 329 330 331 332 332 331 331 330 330 330 331 332 332 332 331 334 334 333 333 332 330 330 330 332 332 332 331 331 331 331 331 331 331 331 332 332 333 333 334 335 337 338 338 338 338 338 337 337 336 336 336 336 336 336 335 333 331 330 329 330 329 329 333 337 338 338 337 337 336 336 338 337 336 335 334 337 339
334 334 334 332 328 328 328 328 329 330 331 330 330 329 328 327 327 328 329 330 331 330 330 333 333 331 330 329 327 327 329 330 330 330 329 329 330 330 330 330 329 330 330 330 331 331 332 333 334 335 335 336 337 336 336 336 335 334 333 333 334 334 335 334 333 332 332 332 332 332 332 334 335 336 337 336 335 335 336 337 338 335 334 335 337
334 333 334 333 331 331 331 330 330 330 330 329 328 327 327 327 327 327 326 327 328 327 329 331 331 330 328 327 327 327 328 328 329 329 328 329 329 330 330 330 329 329 330 330 330 330 330 330 331 331 331 332 333 333 332 333 334 334 334 333 333 334 334 334 335 335 334 334 334 333 332 332 332 333 334 335 334 334 334 336 337 336 334 333 334
336 335 335 334 331 331 330 329 329 328 328 327 327 327 326 327 327 326 326 326 326 326 326 327 328 328 327 327 328 328 328 328 329 329 329 329 329 331 331 330 329 329 330 330 330 328 328 328 329 328 328 329 330 331 331 331 332 333 334 334 333 333 333 333 334 334 335 336 335 334 333 331 330 331 332 332 333 333 334 334 333 335 337 334 333
337 337 337 336 330 328 328 328 328 327 327 327 327 327 327 327 327 327 326 326 326 326 325 325 326 327 327 327 328 329 329 329 329 329 329 329 329 331 330 328 328 328 329 329 329 328 328 328 328 328 327 327 328 328 329 330 331 331 331 332 333 332 332 333 334 335 336 336 335 335 334 332 331 331 332 332 332 333 334 333 331 332 334 332 331
337 336 336 337 332 328 328 327 327 327 327 327 327 327 327 327 327 327 326 326 326 326 326 326 327 327 328 328 329 329 329 330 330 329 328 328 328 330 329 327 327 327 327 327 327 326 326 327 327 327 327 327 327 327 327 328 329 330 331 330 330 330 331 332 334 335 336 336 336 335 335 334 334 333 333 333 333 333 334 333 332 330 330 330 329
337 337 336 337 335 332 330 328 327 327 327 327 328 328 327 327 327 327 327 327 327 326 327 327 327 328 328 329 329 329 330 331 331 329 329 328 326 327 325 324 324 324 324 324 324 323 323 323 324 325 326 326 327 327 327 327 328 329 330 330 329 329 330 330 333 335 336 336 336 335 335 335 335 334 334 335 335 335 334 334 332 330 330 329 329
337 336 335 335 335 334 332 331 330 329 329 329 328 328 327 326 327 327 327 327 327 327 328 328 328 329 329 329 328 330 333 333 333 330 330 329 327 326 324 322 321 320 321 322 323 322 321 320 321 322 321 322 323 325 326 327 327 327 328 329 329 329 329 329 331 334 335 334 334 334 335 335 334 334 334 334 337 338 336 334 332 330 330 330 329
337 336 336 334 334 334 334 334 333 332 332 332 330 328 328 327 327 327 328 328 328 328 329 329 330 330 330 330 330 333 334 334 333 331 331 330 328 328 326 325 322 319 322 325 325 323 323 324 324 323 320 317 316 318 322 324 325 326 327 327 328 327 328 328 328 330 332 332 332 332 333 335 335 334 333 332 335 337 337 334 332 331 331 331 330
337 337 336 335 336 335 335 336 335 334 334 335 334 331 332 332 330 329 329 329 328 329 331 331 332 332 331 331 332 333 333 333 333 331 331 329 329 329 328 327 323 323 325 326 326 323 323 325 328 327 323 320 319 317 316 318 320 322 324 326 327 327 327 327 326 327 330 330 330 330 330 333 334 334 334 333 333 334 336 334 332 333 334 333 331
336 336 337 337 338 336 336 337 337 336 335 336 336 334 335 335 333 331 330 329 329 330 332 331 331 331 329 329 330 330 332 331 331 331 330 328 327 329 328 326 323 324 324 323 323 322 321 323 325 325 323 322 324 323 318 314 314 315 319 322 325 326 327 327 327 328 330 330 329 329 328 330 333 335 335 335 334 334 336 335 334 336 336 334 331
337 337 338 338 338 337 336 337 337 337 336 336 337 335 335 335 333 332 331 330 329 330 330 329 328 328 325 325 326 327 328 325 325 328 328 325 325 326 327 324 322 323 322 321 320 319 320 321 321 320 320 321 322 322 319 315 314 314 318 323 325 326 327 327 328 330 332 330 329 329 329 329 331 334 335 335 335 335 336 336 338 338 335 333 331
337 337 338 337 337 337 337 337 336 336 337 336 336 334 334 334 332 332 332 330 329 329 328 327 327 326 323 322 323 323 324 321 321 325 325 323 324 326 325 322 321 321 320 319 318 318 320 319 318 318 319 319 318 317 317 317 319 320 322 326 327 328 327 328 330 332 332 331 330 329 329 330 331 333 334 334 334 336 337 339 339 335 332 332 333
337 336 336 336 336 336 336 335 334 334 334 334 333 332 332 331 331 330 330 329 327 326 326 325 325 325 322 320 322 321 320 320 321 323 322 322 324 324 322 320 320 319 319 319 317 319 319 318 317 318 318 318 317 317 318 318 320 321 322 325 327 328 329 330 332 333 332 331 331 331 331 331 331 331 332 333 334 335 339 340 337 333 331 333 334
336 335 335 335 336 335 335 334 333 332 331 331 331 329 330 329 328 325 326 326 324 324 323 323 321 322 321 318 320 321 320 321 321 322 320 322 323 322 321 320 320 319 319 319 317 319 318 317 317 317 317 317 316 316 317 318 318 318 318 320 323 327 330 330 331 331 331 331 331 331 331 330 330 332 333 333 334 335 338 339 336 333 333 334 336
334 333 333 333 333 333 333 332 331 331 330 329 329 329 328 328 327 323 323 322 321 323 321 321 320 320 320 317 320 321 321 322 321 321 321 323 321 321 322 319 321 319 319 320 317 318 317 316 316 315 315 315 314 313 314 315 315 316 317 317 317 320 323 323 322 323 326 328 330 331 331 330 330 332 334 334 335 335 337 338 334 333 335 335 336
332 332 332 330 329 329 329 330 330 330 329 328 328 329 326 326 326 323 322 318 318 322 320 320 319 319 318 316 321 321 320 322 321 320 320 322 320 320 321 319 320 319 319 319 316 317 317 315 315 314 314 313 312 312 312 312 312 314 316 316 316 316 317 317 317 318 321 323 325 328 330 330 329 331 333 335 337 336 334 336 335 334 336 336 336
331 330 329 327 327 327 327 328 328 328 328 327 327 327 325 325 324 323 322 317 317 320 319 319 318 319 316 315 322 321 319 322 321 319 318 321 320 320 320 318 319 318 318 318 316 316 316 315 314 313 313 313 312 311 311 311 311 312 313 313 314 315 316 316 317 318 318 318 318 321 325 328 329 329 330 333 336 336 333 334 335 335 336 336 337
327 327 325 324 324 325 326 327 327 327 326 326 326 326 323 323 322 322 321 318 318 318 318 318 316 318 316 314 321 321 317 320 320 318 318 320 320 320 319 317 318 317 317 316 315 315 315 315 313 312 313 313 311 311 310 310 310 310 310 312 313 313 313 315 316 316 316 315 316 317 319 324 329 328 328 330 333 335 335 333 334 336 336 337 337
324 323 322 321 320 322 324 325 325 324 325 325 326 324 322 322 320 320 321 318 317 316 317 318 315 319 317 314 319 320 316 318 320 318 318 319 318 319 318 317 317 316 316 314 313 313 314 314 312 312 312 312 310 310 310 310 311 311 311 311 311 311 312 312 313 313 314 315 316 316 316 320 326 327 326 328 331 333 335 335 335 336 337 337 337
323 322 321 320 318 320 322 323 324 322 322 324 323 322 321 321 320 318 319 317 316 316 317 316 314 318 320 316 318 319 315 317 320 318 318 318 318 319 317 317 316 316 315 312 311 311 312 312 311 311 311 311 310 310 311 311 312 312 312 312 311 312 311 311 311 311 312 313 314 316 317 317 320 323 324 326 328 331 333 335 335 336 337 337 336
323 321 319 318 317 319 320 320 322 320 320 321 320 321 319 320 319 317 317 315 315 316 315 315 315 317 320 318 316 318 317 317 318 317 316 317 317 318 317 316 315 315 313 310 310 311 311 311 312 312 311 312 312 312 312 313 313 313 313 313 313 313 312 312 312 312 311 312 312 314 316 316 317 320 323 323 322 326 330 333 335 335 335 336 336
322 319 317 317 316 317 318 317 318 319 319 318 318 320 317 317 318 316 316 314 315 316 314 315 316 316 318 318 315 316 318 317 317 316 315 315 317 316 315 314 313 312 311 310 312 312 312 313 314 313 313 313 313 313 314 314 314 314 314 314 314 314 314 314 313 313 313 312 312 312 314 316 317 317 318 317 319 323 326 329 332 333 334 334 335
320 318 317 317 316 316 317 315 316 317 317 316 317 318 316 316 317 316 314 313 315 316 314 315 317 316 317 318 315 315 318 316 316 316 315 315 315 315 314 312 312 311 311 312 313 313 314 314 314 314 313 314 314 314 314 314 314 314 314 314 314 315 315 315 314 314 314 314 313 312 313 314 315 315 315 316 321 325 327 328 329 332 334 334 335
317 317 317 317 315 315 317 316 315 315 316 316 317 317 316 317 317 315 314 314 315 316 315 315 316 315 315 317 315 315 317 315 315 315 315 316 315 314 312 311 312 312 313 314 314 313 314 314 314 314 314 314 314 314 314 314 314 315 315 315 315 315 315 315 315 315 315 315 315 314 313 312 313 314 314 319 326 328 329 330 330 332 333 333 334
317 317 317 317 315 315 315 316 316 315 316 316 317 317 316 317 316 314 314 315 316 316 316 316 316 315 315 316 315 315 316 314 314 315 314 315 315 313 312 313 314 314 314 315 314 314 314 314 314 314 314 314 314 314 314 314 315 315 315 314 315 315 315 315 315 316 315 315 315 315 314 313 313 314 317 325 329 329 329 330 330 331 332 333 334
317 317 317 316 316 315 314 316 316 316 316 316 316 317 316 317 316 315 314 316 317 315 315 316 316 315 315 316 315 315 316 314 314 314 313 313 313 313 313 314 314 314 314 314 314 314 314 313 314 313 314 314 314 314 314 314 315 315 315 315 315 315 315 316 316 316 316 316 315 315 315 313 314 316 320 324 325 326 328 327 329 330 331 333 334
317 316 316 316 315 315 315 315 316 317 317 316 316 317 316 316 316 317 315 316 317 315 314 316 317 315 315 316 315 315 315 314 314 313 312 313 313 313 314 314 313 313 314 313 314 314 313 313 313 313 313 313 313 314 314 314 315 316 315 315 315 315 315 315 316 316 316 316 315 315 316 315 317 318 319 321 322 323 326 326 327 329 331 332 333
317 316 316 316 315 315 315 315 316 316 317 317 316 316 316 316 316 317 317 316 317 316 315 316 317 315 315 316 315 314 314 314 313 312 312 313 313 314 314 313 312 313 313 313 313 313 313 313 313 313 313 313 313 314 314 315 315 315 315 315 315 315 315 316 316 316 316 316 315 315 317 317 318 318 320 321 323 324 327 328 328 329 330 331 332
317 317 316 316 316 315 315 316 316 316 316 316 316 315 315 316 316 316 317 315 315 317 315 316 317 315 314 315 314 313 313 313 312 312 312 313 314 313 313 313 312 312 312 312 312 312 313 313 313 313 313 313 313 313 314 314 314 314 315 315 315 315 315 316 316 316 316 316 316 316 316 316 316 318 320 322 322 323 326 329 330 329 330 331 332
317 317 316 316 315 315 315 316 316 316 316 316 316 315 314 316 316 315 317 316 315 317 316 316 316 315 314 314 314 313 313 312 311 312 312 313 313 312 312 312 311 311 311 312 312 312 313 313 313 313 313 313 313 313 313 313 314 313 314 315 315 315 315 316 316 316 316 316 316 316 315 316 317 319 321 321 321 322 325 327 329 330 330 330 331
317 317 317 316 315 315 315 315 316 316 315 316 317 316 316 317 317 316 317 317 316 316 317 316 316 315 314 314 313 313 313 312 311 312 312 312 312 311 311 311 311 311 311 311 312 312 313 313 313 312 312 312 312 312 312 313 313 313 314 314 314 314 315 316 316 315 316 315 315 315 316 316 318 319 320 321 321 323 325 326 327 329 330 331 331
317 317 317 316 316 315 315 315 315 316 315 316 318 317 317 318 318 318 318 318 317 316 317 316 315 315 314 314 314 313 312 312 312 312 312 312 311 310 310 310 311 311 311 311 312 312 312 312 312 312 312 312 312 312 312 312 312 312 313 313 313 314 315 316 315 315 315 315 315 315 316 316 317 319 320 321 323 324 325 325 326 328 329 331 329
317 316 316 315 316 315 315 315 315 316 315 315 318 318 317 318 319 318 318 318 317 316 317 316 315 315 314 313 313 312 311 311 312 312 311 311 310 310 310 311 311 311 311 311 312 312 311 311 311 311 311 312 312 311 311 311 311 312 312 312 313 314 314 316 315 314 314 315 315 316 317 318 319 320 321 322 323 325 325 325 326 327 328 330 329
317 316 316 315 315 315 315 316 315 316 316 315 317 318 317 317 318 318 318 318 317 316 316 316 315 315 314 313 313 312 311 312 312 311 311 310 309 309 310 311 311 311 311 311 311 311 311 311 311 311 311 311 311 311 310 311 311 312 312 312 313 313 313 315 313 312 314 315 316 317 318 319 320 320 321 322 322 323 325 325 327 327 328 329 328
317 316 316 315 315 314 314 316 315 315 316 316 316 318 317 317 318 318 317 317 317 316 316 315 314 314 313 312 313 312 311 312 312 311 310 310 309 310 311 311 310 310 311 311 311 311 311 311 310 310 310 310 310 310 310 310 311 311 311 311 312 313 313 313 311 311 313 315 316 317 317 318 319 320 321 322 322 323 325 325 326 326 326 326 326
318 317 316 315 315 315 315 316 316 314 315 316 316 317 317 317 317 318 317 317 317 316 316 315 314 314 313 312 312 312 312 312 311 310 309 309 310 310 310 310 310 310 311 311 311 311 310 310 310 310 310 309 309 310 309 309 310 310 311 311 312 312 311 311 311 311 313 315 315 315 316 317 318 320 322 322 322 322 323 323 322 322 322 322 321
318 317 317 316 314 314 315 315 316 315 315 316 316 316 317 316 317 317 317 317 317 316 315 315 314 314 314 312 312 312 311 311 311 310 309 309 310 310 310 310 310 310 310 311 310 310 310 310 310 309 308 308 309 309 308 308 309 309 310 311 311 311 310 310 311 312 313 314 314 314 314 315 316 319 321 320 320 319 320 321 320 319 319 319 319
318 318 317 316 314 314 315 316 316 315 314 315 315 315 316 316 316 317 317 317 316 315 315 314 314 314 313 312 312 312 311 310 310 309 309 309 310 310 310 310 310 310 310 310 310 310 310 310 309 308 308 308 308 308 308 308 308 308 309 309 309 310 310 310 311 312 313 313 313 312 311 312 313 316 318 318 317 317 317 318 317 317 317 317 317
317 318 317 316 314 315 315 316 316 315 314 315 315 315 316 316 316 316 316 316 315 315 314 313 313 313 313 312 311 311 311 310 310 309 309 309 310 310 309 309 310 310 310 310 310 310 310 309 309 308 308 307 307 307 307 307 308 308 308 308 308 309 309 310 311 312 313 314 313 312 310 310 311 313 315 316 316 315 315 315 315 314 315 315 315
318 318 317 316 315 315 315 315 316 315 314 315 315 315 316 316 316 315 315 315 314 314 313 312 312 313 312 311 311 311 310 310 309 309 309 309 310 310 309 309 310 310 310 310 310 310 310 310 309 308 307 307 307 307 307 307 307 307 308 308 308 309 309 311 312 312 314 314 313 312 310 309 310 312 313 313 313 313 313 313 313 312 314 315 315
318 317 316 315 314 315 315 315 315 315 314 315 315 315 315 316 315 315 314 314 313 313 312 311 311 312 311 310 310 310 309 309 309 308 309 309 309 309 309 310 310 309 310 310 310 310 310 310 309 308 307 307 307 307 307 307 307 307 307 308 308 309 310 311 312 312 313 314 313 311 310 309 309 311 312 312 311 311 311 311 311 312 314 315 315
319 317 315 314 314 315 316 315 315 315 315 315 315 315 315 315 315 314 313 312 312 312 312 311 311 311 311 310 310 309 309 309 308 308 309 309 309 309 310 310 310 309 310 310 310 311 310 310 310 309 308 308 308 308 308 308 307 307 308 308 308 309 311 311 312 313 313 313 311 310 309 309 310 310 311 312 312 312 311 311 312 313 314 314 313
319 317 314 313 313 315 316 315 314 315 315 315 314 314 314 314 314 314 313 312 312 312 312 311 311 311 310 310 309 309 309 308 308 308 309 309 309 309 310 310 310 310 310 310 310 311 311 310 310 309 309 309 310 309 309 309 309 309 308 308 309 310 311 312 312 313 313 312 310 309 308 308 309 310 310 310 311 312 313 313 313 313 313 312 312
Wind_Speed
8 8 9 10 11 11 11 11 11 11 12 11 12 12 12 12 12 12 13 13 13 13 13 13 14 14 14 14 14 14 13 13 13 14 14 13 13 12 11 11 11 11 10 10 10 10 10 9 8 8 8 9 8 8 8 8 8 8 7 7 8 8 9 9 9 9 10 10 10 9 9 8 7 6 5 4 3 4 5 4 4 5 4 7 10
7 7 9 10 11 11 11 11 11 12 12 12 12 11 12 12 12 13 13 13 13 13 13 13 14 14 14 14 14 14 14 13 13 13 14 13 13 12 12 12 11 11 11 11 11 10 10 10 9 9 9 9 8 8 8 8 7 8 8 8 8 9 10 10 10 10 10 10 10 10 10 11 11 10 8 7 6 5 5 4 6 6 4 9 11
6 7 9 10 10 11 11 11 11 11 11 11 11 12 12 12 13 13 13 13 13 13 13 13 14 14 14 14 14 15 14 14 14 14 14 14 13 12 12 12 12 12 11 11 11 11 10 10 10 10 10 10 9 8 9 8 8 8 8 9 9 9 10 11 10 10 10 10 11 12 12 13 13 13 12 11 9 8 7 5 6 8 5 7 9
7 8 8 9 10 10 10 10 10 11 11 11 11 12 13 13 13 13 13 13 13 13 13 13 14 14 14 15 15 15 15 14 15 15 15 14 14 14 13 12 12 12 12 11 11 11 10 10 11 11 11 10 10 9 9 9 9 9 9 9 10 11 11 12 12 12 12 12 13 13 14 14 13 15 15 15 13 11 10 8 7 9 9 8 7
8 9 9 7 8 9 9 9 10 10 11 11 12 12 12 12 12 13 13 13 14 13 13 13 14 14 14 14 14 14 14 14 14 14 15 14 15 14 14 13 13 12 12 12 11 11 11 11 11 11 11 11 10 10 10 10 10 11 11 11 11 12 12 13 13 14 13 13 14 15 16 15 14 15 16 17 16 14 12 11 10 10 12 11 9
6 8 8 6 7 8 8 9 10 10 11 11 11 11 12 12 12 12 13 13 14 14 13 13 14 14 14 14 14 14 14 14 14 14 14 14 14 14 14 13 13 13 12 12 12 12 12 12 12 11 11 11 11 11 11 11 12 12 12 12 13 13 13 14 15 15 15 15 16 17 18 17 15 16 15 15 16 16 15 13 13 12 12 11 10
6 8 8 6 7 8 9 9 10 10 11 11 11 11 11 12 12 12 12 13 13 13 13 13 13 13 14 14 14 14 14 14 14 14 14 15 15 14 14 13 13 13 13 13 13 13 13 12 12 12 12 12 12 12 12 12 13 13 13 13 14 14 15 15 16 16 16 16 17 19 19 18 16 18 18 16 16 17 17 15 14 13 12 12 12
7 9 9 7 8 9 9 10 10 11 10 10 10 11 11 12 12 12 12 12 13 13 13 13 13 14 14 15 15 15 15 14 14 14 15 15 15 15 15 14 14 14 14 14 13 13 13 13 13 12 12 12 12 13 13 13 14 14 14 14 14 15 15 16 16 17 17 17 19 20 19 18 17 19 20 18 17 17 18 17 15 15 13 13 13
8 10 9 8 9 9 10 10 10 10 10 10 10 11 12 12 13 12 12 12 13 12 12 12 13 14 15 15 16 16 15 15 14 14 15 15 15 15 15 15 15 14 14 14 14 14 14 14 13 13 13 13 13 13 14 14 15 15 15 15 15 16 16 17 16 17 17 18 18 19 19 19 18 19 20 20 19 17 18 19 17 16 15 15 15
10 10 9 9 9 9 10 10 10 10 10 10 10 11 12 12 13 13 13 13 13 13 13 13 13 14 14 15 16 15 15 14 14 15 15 15 15 15 15 15 14 14 14 14 14 14 14 14 14 14 14 14 14 14 15 15 15 15 16 16 16 16 17 17 17 17 18 19 18 19 20 20 20 20 21 21 20 17 18 20 19 17 15 15 14
8 9 9 9 10 9 10 10 9 10 10 10 10 11 12 12 12 12 13 14 14 14 13 13 13 13 14 15 15 15 15 15 15 15 15 15 15 15 15 15 15 15 15 15 15 15 15 14 14 15 15 15 15 15 15 15 16 16 16 16 16 17 18 18 18 18 19 18 18 20 20 21 22 21 21 23 20 16 19 21 19 17 16 14 13
8 8 9 8 10 10 10 10 10 10 10 10 10 11 11 11 12 12 12 13 13 13 13 12 12 13 14 14 15 15 15 15 15 16 16 15 15 15 16 16 16 16 16 16 16 16 16 16 16 16 16 15 15 15 16 16 16 16 16 17 17 18 18 18 18 19 19 19 19 20 21 22 21 18 17 22 22 17 20 21 20 18 16 15 13
9 8 8 8 9 11 10 10 10 10 10 10 10 10 10 10 11 11 11 11 12 12 12 12 12 12 13 14 15 15 16 15 15 16 16 16 15 15 16 17 17 17 17 17 17 17 17 17 17 17 17 17 17 17 16 16 16 16 17 17 18 18 18 18 18 19 20 19 20 20 21 21 22 22 16 15 21 20 20 22 20 18 16 15 14
9 8 8 7 8 11 11 11 11 11 10 10 10 10 10 10 10 10 10 10 11 11 12 12 12 13 14 14 15 15 15 14 14 15 15 17 16 15 17 17 18 18 18 18 18 18 18 18 18 18 18 18 19 18 18 18 17 17 17 17 18 18 18 17 17 18 20 20 20 21 21 21 22 25 19 12 17 21 22 22 20 18 16 16 14
9 10 10 8 8 10 11 11 11 11 11 11 10 10 10 10 9 9 10 10 11 12 12 13 13 14 15 15 15 14 14 13 14 15 15 17 16 16 18 18 20 21 19 19 18 19 20 19 19 19 19 20 20 20 20 20 19 19 19 18 18 18 17 17 18 18 19 20 21 21 21 21 21 23 20 14 16 21 22 21 20 18 16 15 14
10 11 10 10 9 9 10 10 10 11 11 11 11 11 11 10 10 10 11 12 12 13 13 14 14 15 16 15 16 14 13 13 14 14 15 17 17 16 18 18 22 23 19 18 19 20 20 20 19 19 20 21 21 21 21 21 21 21 21 21 20 19 18 18 20 20 20 21 21 21 21 22 22 21 20 16 16 19 21 20 18 18 15 13 13
10 11 11 11 10 9 9 10 11 9 8 9 11 13 13 12 12 12 13 13 14 14 14 15 14 14 16 15 15 14 13 13 13 14 12 16 18 15 16 19 23 21 18 18 19 21 21 20 19 20 21 23 23 22 22 22 22 22 23 23 23 22 21 20 21 22 22 22 22 23 21 22 23 21 19 18 18 19 20 19 18 18 13 11 14
11 11 12 14 13 12 11 13 13 9 9 9 10 13 14 13 14 14 15 15 15 13 12 13 13 13 15 15 15 15 13 13 14 14 12 16 18 16 15 18 20 18 18 19 19 21 22 20 19 20 22 23 23 23 24 23 22 22 22 23 23 23 23 22 22 23 22 23 23 23 23 23 20 17 17 18 19 19 21 20 19 15 11 14 18
13 13 13 15 15 15 14 15 15 12 13 12 10 12 11 12 14 14 14 13 13 11 11 13 13 14 17 17 16 15 14 15 16 14 14 17 18 17 15 17 19 17 18 19 19 22 21 18 19 21 22 22 23 24 25 23 21 21 22 22 21 20 21 22 23 22 22 22 23 25 25 22 18 18 18 18 19 19 21 21 16 10 13 20 20
15 16 15 15 16 18 17 16 16 15 14 11 11 13 11 11 12 12 10 9 12 11 11 14 14 15 19 19 17 17 16 17 17 14 15 18 17 16 15 18 20 17 18 18 20 22 19 18 21 23 21 21 24 25 25 24 22 21 22 22 21 19 20 22 21 20 20 21 23 24 22 18 18 20 21 21 19 19 21 19 13 12 18 22 20
13 15 18 18 17 18 17 16 16 15 13 11 11 13 12 11 11 12 10 10 13 12 13 15 15 17 20 20 18 18 18 16 17 15 17 17 16 16 16 19 18 16 18 17 21 21 17 19 23 23 20 21 26 26 24 22 20 20 21 20 18 19 21 21 20 20 21 21 22 23 19 17 19 21 21 20 18 19 19 15 14 18 20 21 21
10 14 17 18 17 17 17 16 17 16 14 12 11 12 13 11 11 13 13 12 13 14 15 15 16 18 19 20 18 18 18 17 17 16 18 17 15 16 17 19 18 17 18 17 21 20 18 22 23 22 20 21 24 23 22 20 20 21 20 19 18 19 20 20 21 20 19 19 22 22 20 19 20 20 20 18 16 17 17 15 17 21 20 19 19
12 13 16 18 18 17 17 17 17 17 16 14 13 13 14 13 12 13 14 14 14 15 16 16 17 18 19 19 18 18 18 18 17 17 18 17 16 17 17 19 18 18 19 17 20 20 20 23 22 22 22 21 21 21 21 20 21 21 19 19 19 20 20 20 21 20 19 19 20 21 21 19 17 16 16 16 15 15 17 16 18 21 20 18 17
13 13 15 17 18 18 18 17 16 17 16 16 15 13 13 14 13 14 15 15 15 16 15 16 18 17 18 20 18 18 19 18 17 18 19 17 17 17 17 19 18 19 20 19 21 21 20 23 22 22 22 21 22 21 21 21 21 20 19 19 20 19 19 21 21 20 20 19 19 19 20 19 17 16 16 15 14 14 16 17 17 20 19 18 17
14 14 15 17 18 18 18 17 16 16 16 15 15 14 13 13 14 15 15 16 15 16 15 16 17 16 18 20 18 19 20 18 17 19 20 19 19 17 18 20 19 19 20 20 22 22 21 22 23 23 22 22 23 22 22 22 22 21 20 20 19 19 19 20 19 18 20 21 22 22 20 18 17 17 18 17 15 15 16 17 18 19 19 18 16
14 14 15 16 17 17 17 17 16 16 16 15 14 14 15 14 14 14 14 17 16 16 16 15 16 15 18 20 18 18 20 19 18 19 20 20 19 18 18 20 20 20 20 21 22 22 22 22 22 23 22 21 21 21 22 22 22 22 22 21 20 20 19 18 18 18 21 21 22 23 22 20 18 16 17 18 18 17 17 19 20 19 19 18 16
15 15 15 15 17 17 17 17 16 16 16 15 14 13 14 14 15 14 14 17 16 15 16 15 16 14 16 20 19 19 20 19 18 20 20 20 20 19 19 19 20 20 20 22 23 22 22 22 23 23 22 21 21 21 21 21 21 22 21 20 20 20 19 19 20 20 20 19 20 20 21 20 17 16 16 17 18 18 18 19 19 19 19 17 16
15 16 16 16 17 17 16 16 16 16 15 15 14 14 14 13 15 15 14 15 15 16 15 15 16 14 15 19 19 19 20 19 19 20 21 20 20 19 19 19 20 20 20 22 23 23 23 22 23 23 21 21 22 22 21 21 21 20 21 20 19 19 19 21 21 21 21 20 20 18 18 20 19 18 17 17 17 18 19 18 18 18 19 17 17
16 16 16 16 17 16 16 17 16 16 16 15 14 14 14 14 14 15 15 15 16 16 14 14 15 15 15 16 18 20 19 20 20 20 21 21 20 20 19 19 20 20 20 22 23 23 23 23 23 22 21 22 22 22 22 23 20 19 19 19 19 18 18 19 19 20 20 21 22 19 18 19 19 18 17 17 18 18 18 19 19 19 19 18 18
16 16 16 16 16 15 15 16 16 16 16 15 15 14 14 15 14 15 15 14 15 15 14 15 15 15 15 15 18 19 18 19 20 20 21 21 21 20 19 19 20 20 22 24 23 23 24 23 22 22 22 22 22 23 24 25 23 22 20 20 22 22 19 19 19 19 18 19 21 20 19 18 18 20 20 21 21 18 17 18 19 20 19 19 19
16 16 16 15 15 15 15 16 17 16 16 15 15 15 15 15 15 14 15 14 15 14 14 15 14 14 15 15 18 18 17 19 20 20 20 21 20 20 20 20 20 21 24 23 22 23 23 21 22 23 24 24 24 24 25 24 25 25 23 21 22 23 23 23 24 24 22 21 21 20 18 19 19 20 22 23 22 18 16 17 18 20 19 18 18
16 16 15 15 15 15 14 15 17 17 17 16 15 15 15 15 15 14 15 15 15 13 14 15 14 14 15 16 18 18 17 19 20 20 20 20 20 20 20 20 21 23 24 22 22 23 23 22 22 23 25 25 25 25 25 24 24 24 25 25 24 24 24 25 25 26 27 26 24 21 18 18 18 19 23 21 16 13 14 16 17 19 18 16 17
14 15 15 15 15 15 15 15 17 17 16 16 15 15 15 15 14 14 15 15 15 14 14 14 14 14 15 17 19 17 17 19 19 20 20 20 20 20 20 20 22 24 22 21 23 24 24 24 23 23 24 25 24 24 25 24 24 25 25 26 26 25 25 25 24 24 26 27 28 26 21 17 18 19 19 13 9 11 13 14 15 17 17 16 16
14 14 15 15 15 15 15 15 16 17 16 16 16 15 14 14 13 13 15 15 13 14 14 13 14 14 15 17 19 17 17 18 19 20 21 21 20 20 20 20 22 23 21 22 23 24 25 25 25 25 24 23 23 24 24 23 24 25 25 26 25 25 26 25 24 25 25 26 26 26 24 19 17 19 17 13 14 16 15 15 15 15 15 15 15
14 15 16 15 15 15 16 16 17 17 16 16 16 14 14 13 12 11 13 15 12 12 15 14 13 15 15 16 17 18 17 18 19 21 21 21 20 20 19 20 23 23 22 23 24 23 24 25 26 25 23 22 22 23 24 23 24 25 25 25 24 24 24 24 24 24 24 24 22 24 24 19 16 18 19 18 18 17 16 16 15 15 15 15 14
15 16 16 15 16 15 16 16 17 17 16 15 15 14 13 12 11 10 11 14 12 11 14 14 13 14 15 15 17 17 18 19 19 20 21 20 19 20 20 21 24 24 24 25 24 24 24 24 25 24 22 23 22 23 23 22 23 24 25 25 24 24 24 24 24 24 25 24 21 22 21 18 17 18 18 18 18 17 16 14 13 15 16 16 13
15 15 15 16 16 16 16 16 16 17 16 15 15 15 14 11 11 11 9 12 13 11 13 14 13 14 15 15 16 17 18 19 19 20 21 19 19 20 20 22 24 24 25 24 23 24 24 23 24 23 23 23 23 23 22 21 22 23 23 24 25 25 25 25 24 24 25 22 19 19 19 19 18 17 17 18 18 18 17 14 11 13 14 15 13
14 14 15 15 15 15 15 15 15 16 17 16 15 14 14 13 12 11 9 11 13 11 12 13 13 14 15 15 15 17 18 19 20 20 20 20 20 20 20 22 23 22 22 22 22 23 25 24 23 24 24 22 22 22 22 22 23 24 23 22 24 26 25 24 23 22 21 19 19 19 20 20 17 16 17 18 18 18 16 14 13 13 12 12 11
14 13 14 14 14 15 15 15 15 16 16 16 15 14 14 14 13 12 11 11 12 12 12 13 13 13 15 15 15 17 18 18 20 20 20 20 20 21 21 22 22 22 22 22 22 23 25 25 24 24 25 23 21 22 22 22 24 25 23 22 24 25 24 21 19 20 21 22 21 20 19 19 18 18 18 17 18 17 14 14 13 13 11 9 9
13 13 13 14 14 14 14 15 16 16 16 16 15 15 14 14 13 13 14 12 12 12 13 13 13 13 14 15 15 18 18 19 20 19 20 20 20 22 22 22 23 23 23 23 24 24 24 26 25 25 25 25 23 21 22 24 25 25 24 25 23 22 22 17 16 22 25 24 20 18 20 21 21 20 19 17 17 16 14 13 12 13 12 9 10
12 13 12 13 13 14 14 14 15 15 16 17 15 14 14 14 13 13 13 12 12 12 12 13 13 13 15 15 15 18 19 18 19 19 20 20 21 22 22 23 24 23 23 23 24 24 24 25 25 25 24 23 23 22 24 27 24 20 22 25 22 20 18 12 16 25 27 23 18 18 21 21 22 21 20 18 15 14 12 10 9 10 10 10 13
12 12 12 12 12 14 14 13 14 14 14 16 15 13 14 14 13 12 12 11 11 12 12 12 14 13 15 16 16 18 18 18 19 19 19 20 22 23 22 23 24 23 23 23 22 23 25 25 25 25 24 22 21 22 25 24 18 15 16 17 15 16 13 10 20 28 26 23 21 20 22 21 21 20 18 17 14 12 9 6 6 8 9 13 20
11 11 11 11 11 13 14 12 13 14 14 15 15 14 13 14 13 12 11 10 10 11 11 12 13 14 15 16 16 17 18 18 19 19 20 21 22 22 22 23 24 24 23 23 23 24 25 25 25 25 24 24 22 21 23 21 18 17 13 9 8 10 9 10 23 31 25 24 24 24 23 22 22 19 15 13 11 9 6 5 4 4 10 17 25
9 10 10 11 11 12 13 12 12 13 14 15 15 14 13 14 13 11 10 9 9 10 11 12 14 14 15 18 17 17 18 18 18 19 20 21 22 23 24 23 23 24 23 23 23 24 24 24 24 24 23 23 23 22 22 20 19 17 10 5 5 6 6 8 16 23 22 23 24 25 24 22 22 17 10 10 13 14 13 16 19 25 32 30 33
8 8 9 10 11 11 12 11 11 13 14 14 15 14 13 14 14 12 11 10 10 12 13 14 15 16 16 19 18 17 18 18 18 20 21 21 22 24 24 23 23 24 23 23 23 25 24 22 23 25 24 22 21 23 22 20 19 17 11 6 4 3 5 8 9 13 17 23 24 25 26 26 26 19 13 20 24 25 26 25 23 32 44 37 33
7 7 8 9 10 10 11 11 11 12 14 14 15 14 13 14 14 13 12 12 12 13 14 15 16 16 16 18 18 17 18 18 18 20 21 21 22 23 23 23 23 23 23 24 25 26 23 22 25 26 26 22 20 20 20 20 19 17 14 12 10 6 6 8 6 7 10 19 23 26 30 32 33 26 19 29 32 34 37 34 28 31 41 37 32
7 7 6 8 9 10 11 11 11 12 13 14 14 14 13 13 14 13 13 12 13 14 15 16 15 16 16 17 17 16 17 19 19 20 21 21 22 23 22 23 23 22 24 24 25 26 23 25 30 28 26 24 21 18 18 21 19 15 16 16 16 14 11 8 5 6 5 9 16 22 29 34 37 33 24 33 37 37 41 41 36 35 39 38 34
6 6 6 7 8 9 10 11 11 11 13 13 13 13 13 13 13 13 13 13 13 14 15 16 15 15 17 18 17 16 17 18 19 20 21 22 23 22 22 23 23 24 26 25 26 26 24 27 31 30 28 27 23 18 18 21 17 15 18 17 16 16 15 13 8 6 4 2 8 15 23 33 40 36 27 36 41 38 40 42 40 36 38 40 36
5 6 6 6 7 8 10 11 11 11 12 13 13 13 12 12 12 13 14 13 13 14 14 15 16 16 17 17 17 17 17 18 19 19 20 22 22 20 21 22 24 26 27 26 27 25 24 27 29 29 30 29 26 21 19 20 18 16 18 16 15 15 15 12 8 9 6 3 5 8 13 22 32 34 30 38 42 39 38 40 41 37 36 39 37
4 5 6 6 7 7 9 10 11 10 11 13 13 13 12 12 12 13 14 14 14 14 14 15 16 16 16 17 17 17 18 18 19 20 21 22 20 19 22 21 24 26 26 27 27 24 26 29 28 29 31 31 31 27 21 17 15 15 15 13 13 11 9 8 8 9 7 7 7 6 8 13 15 21 30 38 39 37 36 35 37 34 34 37 37
3 5 6 6 7 7 8 10 10 10 10 12 13 13 13 12 13 13 13 14 14 15 15 16 16 16 16 17 17 18 18 18 19 20 22 21 20 22 23 21 24 26 25 27 26 24 28 29 28 30 32 32 32 30 24 19 15 12 10 9 9 8 7 6 7 8 5 6 7 7 7 11 12 13 24 35 36 35 33 31 32 32 33 35 34
Wind_Direction
45 49 42 38 40 44 45 45 44 44 43 41 41 39 36 34 31 30 29 28 27 25 22 19 17 16 15 15 14 12 11 11 11 9 9 8 6 2 360 359 358 356 356 353 354 353 346 342 339 337 335 331 330 335 334 326 323 318 313 308 303 301 299 298 296 295 293 292 292 287 282 271 265 265 256 248 232 216 217 229 207 188 198 202 209
52 51 47 41 44 48 48 50 47 46 45 42 40 37 35 33 31 32 30 29 25 22 20 17 16 16 15 15 15 14 12 12 11 11 11 10 9 6 4 3 360 358 357 354 352 350 345 342 338 335 333 330 327 333 329 322 318 311 307 302 296 294 293 295 295 292 289 287 289 287 281 272 269 263 259 255 237 223 217 215 191 186 215 207 202
65 57 51 42 43 52 52 51 49 48 45 42 40 36 35 33 31 29 27 25 21 19 16 15 15 15 15 15 15 14 13 13 12 11 11 11 10 8 5 4 0 360 358 354 350 346 343 339 336 331 329 328 324 324 324 318 311 305 301 295 289 288 288 291 291 289 288 287 288 287 283 277 276 273 268 261 245 234 224 223 200 179 203 211 201
59 64 60 44 39 49 55 53 52 50 46 43 41 39 37 33 31 27 23 20 17 15 13 14 13 14 15 14 14 14 13 12 12 10 9 9 8 7 5 3 360 358 355 352 346 342 340 335 334 330 329 329 324 319 316 311 305 300 296 292 287 285 286 287 288 286 285 287 288 286 283 280 278 276 273 266 253 244 235 231 218 183 198 225 214
51 61 67 57 41 49 57 56 54 50 49 46 44 42 39 35 31 25 21 19 16 14 12 14 13 13 13 12 12 12 11 10 10 8 7 6 5 4 2 1 359 356 352 349 344 341 338 332 331 328 326 324 320 316 309 305 302 299 295 292 289 288 288 287 286 285 283 283 283 282 279 276 272 272 272 265 254 251 243 231 229 210 208 222 223
58 57 66 65 45 52 58 57 57 52 52 49 47 43 38 33 27 23 19 17 16 15 14 14 14 11 11 10 9 8 8 7 7 6 4 3 2 0 359 358 356 354 350 346 343 338 336 332 328 325 321 318 314 309 304 301 298 296 294 292 291 291 290 289 288 286 284 282 280 278 277 275 269 268 268 260 253 252 244 234 233 231 228 227 228
59 65 72 68 55 59 60 61 61 57 56 50 46 38 33 28 23 21 17 17 16 16 15 14 14 11 11 9 9 7 6 4 3 2 1 1 360 359 357 354 351 350 346 343 340 336 333 329 326 323 319 315 311 307 304 300 296 293 290 290 290 290 288 288 288 288 287 284 281 278 275 272 268 267 266 259 257 251 242 239 235 234 238 232 230
64 79 79 67 64 63 60 60 61 59 56 49 42 35 30 26 23 20 16 17 15 15 15 15 15 13 14 12 11 8 6 4 1 0 360 360 359 357 356 353 350 347 345 342 338 335 330 326 322 319 315 312 309 305 302 299 295 291 289 289 287 286 284 284 285 286 285 284 281 279 275 268 266 267 267 263 261 251 240 239 236 235 236 232 229
73 83 80 67 65 61 60 58 59 58 52 45 38 34 32 29 26 24 21 20 18 18 17 18 17 16 16 13 11 7 6 4 1 360 358 357 356 355 353 351 349 346 345 342 338 336 331 326 321 317 314 310 306 303 301 298 295 292 290 288 285 283 282 282 282 283 282 280 279 278 275 268 263 261 264 264 258 249 240 235 233 234 236 233 230
76 83 83 71 65 60 60 58 57 54 46 41 37 37 35 32 29 27 25 22 21 19 17 19 18 16 12 9 8 6 5 2 359 357 355 353 352 349 348 347 344 342 341 338 336 333 330 326 322 318 314 311 307 304 301 298 296 293 291 288 285 282 281 282 281 281 280 278 276 275 272 268 262 256 257 259 255 244 236 232 229 232 238 238 235
85 84 82 71 62 60 59 57 55 49 45 40 40 41 35 32 29 25 24 22 22 19 17 16 15 11 6 4 3 3 1 359 355 352 350 348 346 345 343 341 338 336 334 332 330 327 325 323 320 316 312 310 307 305 302 299 296 292 290 288 286 284 283 283 282 280 278 275 273 273 272 270 266 260 254 252 250 234 224 225 224 226 233 240 242
85 80 81 73 57 57 56 54 53 47 45 42 41 37 30 28 26 23 21 20 19 18 15 13 9 4 0 359 357 357 355 352 349 347 346 344 342 340 338 337 335 334 331 329 327 325 323 320 318 315 312 309 306 303 301 298 296 293 291 288 286 284 283 282 280 278 276 273 271 272 273 275 278 280 270 251 243 229 218 218 222 225 230 238 246
72 74 75 73 58 52 50 51 52 47 43 41 37 32 27 26 24 21 18 16 13 11 8 5 1 357 354 352 351 350 349 346 346 344 344 345 343 338 339 341 340 339 336 333 331 328 326 323 319 316 313 310 307 304 300 297 294 293 291 290 288 286 285 283 279 276 275 272 270 271 271 274 278 284 289 259 241 230 219 216 222 230 236 240 246
65 70 64 70 67 50 46 50 50 46 41 36 32 29 28 25 23 19 16 11 7 5 1 359 355 352 350 349 348 346 346 345 345 346 347 350 347 341 345 348 348 345 341 339 337 335 332 328 324 320 317 313 309 305 301 297 293 291 288 287 287 286 286 284 282 279 277 274 272 271 269 269 271 275 279 266 240 226 218 220 226 233 239 245 248
61 66 59 62 65 50 45 46 45 41 34 30 28 29 28 24 22 19 17 11 6 4 1 360 357 357 355 353 351 347 346 348 350 348 346 350 349 345 347 350 350 346 342 340 339 337 334 331 328 325 322 318 313 308 303 299 295 291 288 285 283 283 283 282 281 278 278 277 275 273 270 267 266 269 271 260 234 223 223 227 231 236 241 249 253
62 64 62 61 61 54 50 46 42 38 31 27 27 30 27 23 22 19 16 11 9 7 8 8 4 5 2 358 356 350 345 344 347 343 340 345 344 343 342 343 345 343 340 337 337 336 332 327 325 325 324 321 316 311 306 301 297 292 288 285 281 280 279 279 279 278 277 277 276 274 271 267 263 261 265 258 236 227 229 230 234 240 242 248 256
61 60 60 58 56 53 53 51 44 37 32 30 30 31 27 26 24 21 19 16 16 15 15 11 4 5 1 355 350 346 341 337 340 339 340 340 336 337 336 338 342 341 339 335 333 334 331 324 320 322 322 319 315 311 308 303 299 296 292 286 282 279 278 278 277 278 277 275 275 275 272 268 265 261 260 255 244 233 228 230 237 240 237 242 251
55 54 53 51 48 42 43 47 44 32 25 30 33 32 26 25 26 24 23 22 24 20 17 10 2 1 357 352 346 341 341 338 336 334 341 342 335 333 330 338 342 337 336 334 331 332 330 326 321 320 320 318 313 309 309 304 298 296 293 288 284 280 280 279 278 278 276 273 272 274 273 267 264 264 261 255 251 240 231 235 237 230 231 248 251
51 49 48 46 43 39 40 40 36 27 25 29 29 34 27 19 25 22 19 23 25 19 16 10 4 3 356 351 347 343 344 343 337 331 341 344 334 328 329 338 338 332 333 334 333 331 329 328 325 322 320 318 314 310 310 307 297 291 289 287 285 284 283 279 277 277 274 272 271 271 268 261 263 269 266 262 261 254 246 242 232 227 250 259 255
53 47 42 42 41 38 39 35 30 28 28 28 21 30 26 13 21 18 13 21 17 10 11 8 2 1 357 352 350 347 348 344 338 337 343 342 332 328 333 335 332 331 334 335 335 332 330 332 327 323 320 318 318 318 317 313 305 300 299 292 285 285 284 279 276 278 276 274 274 274 269 263 269 273 269 267 264 260 253 242 233 247 259 262 257
54 46 41 38 40 38 36 33 29 28 27 25 21 26 19 8 19 17 10 11 7 3 4 3 0 0 359 356 354 350 350 344 340 345 343 337 335 335 336 333 332 336 336 337 338 333 334 335 328 326 325 319 319 323 324 320 319 322 322 313 297 288 283 279 276 275 277 278 278 282 289 291 285 278 269 265 261 256 250 243 255 261 258 259 256
52 46 43 37 38 36 32 30 25 24 21 19 21 23 14 10 19 14 7 5 3 2 0 0 2 360 359 359 356 354 351 344 345 351 343 337 340 340 339 337 338 341 336 338 339 334 337 334 330 333 331 323 323 329 329 326 330 330 328 327 319 302 288 283 282 280 279 280 282 286 293 295 291 285 271 262 260 257 251 249 261 261 254 255 253
51 48 44 36 35 32 26 24 21 19 17 13 14 20 14 10 16 11 4 3 2 2 1 2 4 0 359 359 358 356 351 346 352 354 344 341 344 340 341 341 341 342 336 340 341 336 338 336 333 336 332 330 331 331 328 328 329 324 320 322 322 313 303 302 304 302 295 288 286 287 287 284 284 288 277 262 256 258 259 253 256 257 250 251 249
47 48 42 35 31 26 22 18 16 14 14 11 9 14 15 9 12 10 4 5 3 1 2 3 4 2 1 1 359 357 353 350 354 353 344 342 345 341 342 342 340 341 338 342 342 336 337 336 335 336 334 333 330 326 328 328 323 319 319 317 314 310 309 311 309 306 306 307 303 296 289 283 279 281 277 265 256 258 265 258 255 255 248 249 249
44 43 38 32 25 21 17 13 13 11 11 10 4 8 15 10 7 5 5 7 3 1 4 3 2 4 4 2 359 356 354 351 352 352 345 343 344 343 344 342 340 341 339 342 339 335 336 336 335 334 331 330 327 328 329 325 323 324 321 315 311 309 308 306 303 305 314 317 312 308 302 291 282 280 279 276 268 263 266 262 256 255 251 248 245
38 36 32 27 20 16 14 12 10 9 8 6 2 7 12 10 4 2 5 5 3 3 3 2 3 5 5 3 359 356 355 351 350 350 346 345 344 343 346 343 340 340 340 342 337 335 335 334 334 330 326 327 328 330 327 324 326 323 316 313 311 309 308 307 309 313 315 310 306 308 308 299 285 282 285 284 276 268 268 266 257 252 253 249 243
34 30 25 22 17 12 13 13 10 9 8 4 5 9 9 7 3 2 5 3 4 4 0 1 4 4 5 4 358 356 355 350 350 350 345 346 343 342 347 342 340 340 340 341 338 336 334 333 332 326 323 327 329 326 325 324 323 318 316 315 312 313 318 322 319 314 308 303 301 301 302 304 294 287 291 287 278 274 271 267 259 250 249 249 242
34 26 20 19 16 12 13 14 10 10 9 4 7 9 6 5 4 3 5 5 4 1 359 3 4 3 4 4 359 356 355 352 354 350 345 346 341 341 345 342 341 339 339 341 339 335 332 331 328 324 325 328 327 326 325 320 316 316 314 310 309 315 321 321 316 313 309 305 303 299 299 305 305 296 291 290 287 281 274 266 261 254 250 248 240
34 25 19 17 14 13 14 15 12 10 10 7 7 8 4 4 4 3 5 7 3 357 0 4 3 2 2 5 3 357 355 355 356 351 346 345 341 342 345 343 342 338 342 342 336 334 333 331 326 325 330 329 326 325 319 311 309 309 307 309 312 310 308 304 302 304 308 311 310 307 301 298 306 308 298 297 297 288 279 270 263 258 253 246 239
37 26 20 17 13 13 15 16 13 11 12 10 8 8 6 3 3 3 6 6 359 357 5 5 1 2 358 5 7 358 357 357 354 350 348 345 341 344 344 342 341 342 347 342 336 336 332 328 328 330 332 328 326 323 319 319 318 313 314 321 320 317 317 312 308 303 300 308 308 306 305 302 307 310 303 299 293 283 281 277 265 260 256 248 242
36 29 22 17 14 14 16 16 15 13 12 12 9 8 7 4 4 4 5 3 357 358 9 3 358 2 359 6 9 360 358 357 353 351 347 345 343 343 343 343 346 349 347 339 336 335 328 329 333 333 332 330 328 325 323 323 319 316 323 328 325 328 332 326 322 320 313 311 305 299 303 308 307 304 301 296 282 274 282 285 273 262 258 253 248
31 28 22 18 16 14 14 15 15 13 13 12 9 9 9 5 6 7 4 2 357 358 7 1 357 5 3 6 10 3 359 357 353 352 347 344 342 342 345 346 349 350 343 339 338 335 333 336 338 335 334 334 331 327 324 320 317 324 336 338 337 338 335 328 322 321 319 318 316 309 305 306 305 301 299 293 277 276 284 282 272 260 254 248 244
28 26 21 19 18 15 13 13 12 12 12 12 10 9 7 3 5 8 5 360 357 360 4 1 0 6 5 5 8 2 357 357 353 351 349 345 342 344 347 347 350 347 342 342 340 337 339 342 343 341 338 336 333 330 327 327 329 336 339 338 339 339 335 329 322 320 319 319 319 316 315 309 304 303 299 295 300 304 294 283 272 255 246 241 238
28 23 21 19 19 15 14 12 9 11 11 11 10 6 3 0 2 5 3 355 354 2 3 0 3 8 5 3 4 0 356 356 354 352 351 348 346 347 348 349 349 344 343 344 339 340 345 347 349 346 340 339 335 332 333 336 340 339 337 337 337 336 334 330 323 321 318 315 314 311 312 310 307 312 312 312 316 311 301 294 278 253 243 241 242
30 25 22 19 19 17 15 13 10 9 8 7 5 0 357 356 355 358 358 354 354 4 3 1 6 8 4 1 0 358 356 355 355 354 352 350 349 349 350 352 348 343 346 346 344 348 350 349 350 347 342 340 336 334 335 339 342 338 334 333 333 331 330 326 320 317 313 312 312 306 308 316 318 317 316 316 317 311 299 292 282 263 247 240 243
30 26 22 20 20 17 15 13 10 8 5 2 358 355 351 348 350 352 355 357 358 9 8 3 9 8 1 0 358 358 357 355 356 355 354 353 352 353 353 351 349 349 352 351 351 352 350 348 347 345 340 338 337 335 335 338 340 334 330 328 328 328 326 322 318 315 312 308 305 304 311 323 321 316 320 323 325 318 298 287 280 265 246 238 236
31 27 22 21 18 16 13 10 9 6 2 359 356 356 352 348 352 352 357 5 5 14 14 4 7 8 1 360 358 358 359 357 357 357 357 357 356 356 353 353 354 353 354 353 351 348 347 346 344 342 340 337 336 335 335 338 337 331 328 326 326 327 324 322 319 315 313 310 309 315 319 318 313 317 327 327 327 321 302 290 276 256 242 236 226
31 27 23 22 18 15 13 9 7 4 2 1 359 1 359 0 3 359 4 15 11 13 17 8 4 7 2 360 359 358 358 359 359 359 0 0 358 357 354 354 354 353 354 352 348 345 345 347 344 341 340 336 335 335 335 337 334 328 326 326 325 323 321 321 321 319 323 328 328 325 318 316 322 331 331 324 326 325 309 296 278 258 248 231 217
31 26 24 22 18 15 13 9 8 5 4 3 3 5 4 7 9 5 6 16 15 8 14 12 2 4 2 359 0 358 357 359 0 1 2 1 360 357 354 354 355 356 356 352 348 346 346 350 347 340 337 338 337 333 333 337 332 325 324 326 324 322 320 321 331 338 341 342 335 327 323 329 339 336 326 320 322 325 315 302 283 263 250 222 207
32 26 23 21 17 14 12 10 9 8 6 4 4 5 6 5 5 6 3 8 16 7 9 11 1 3 3 359 1 0 0 0 0 3 3 2 1 357 355 357 0 1 357 352 350 350 351 351 346 340 338 339 338 335 337 340 333 326 325 326 324 326 326 328 348 350 344 340 336 336 338 340 340 332 324 321 320 322 317 305 285 262 244 212 194
34 27 23 20 18 13 11 10 7 9 9 5 4 4 5 1 359 3 358 359 14 8 3 7 2 5 4 1 4 2 2 1 2 6 6 4 1 357 358 3 5 2 357 354 351 352 354 350 344 340 340 340 338 337 341 341 337 332 331 328 326 332 333 339 356 349 342 345 351 352 349 344 339 332 329 328 326 328 325 310 287 262 233 190 173
34 30 23 18 19 14 11 10 7 9 9 6 4 3 5 1 355 357 353 355 12 9 1 4 3 4 5 4 4 3 3 3 5 8 8 5 360 358 3 7 6 1 357 356 352 351 352 350 347 344 341 339 335 334 340 340 336 333 330 325 325 334 338 351 353 347 349 360 6 3 355 348 340 335 336 335 330 333 334 327 294 256 217 178 161
35 29 24 17 17 15 11 10 9 10 8 6 5 2 4 3 357 356 355 356 11 9 2 5 5 5 8 7 4 4 6 7 8 9 8 3 359 3 9 9 6 2 358 355 352 351 351 350 350 348 342 337 331 331 337 336 330 330 328 319 324 334 341 357 347 342 355 10 12 9 1 353 345 340 343 345 349 357 3 45 70 146 153 147 136
39 29 25 18 17 15 10 11 11 11 9 7 7 5 6 7 3 3 3 3 10 9 5 7 7 6 9 7 5 5 8 10 10 10 8 1 4 10 11 8 5 1 357 353 349 347 348 350 350 349 344 336 329 329 336 336 332 332 331 313 314 327 341 356 339 336 360 19 19 19 12 3 359 355 9 41 58 62 71 90 94 98 104 108 109
46 33 27 21 19 14 11 13 12 12 11 9 8 9 12 11 8 8 8 9 11 10 8 9 8 7 8 7 5 6 11 12 10 11 7 3 9 12 10 7 2 359 356 349 345 343 345 352 353 348 341 335 328 327 334 340 337 335 336 332 325 336 343 340 326 328 8 29 27 24 20 18 17 17 59 80 75 73 81 91 90 95 101 100 99
48 40 33 24 23 17 13 14 15 15 12 11 12 14 16 14 9 7 7 10 11 10 10 9 7 7 7 7 5 8 13 13 11 11 7 6 12 11 9 8 360 356 353 347 345 345 349 356 354 348 343 341 335 328 333 337 337 337 340 342 332 317 312 325 329 316 2 35 33 27 23 27 28 22 55 81 76 73 80 85 76 82 99 99 94
48 43 38 28 27 22 19 17 17 19 15 15 17 17 19 16 11 8 7 10 11 10 10 10 8 7 9 9 7 11 15 13 13 11 6 9 13 10 9 5 357 354 351 348 351 353 355 357 356 356 353 351 344 334 332 333 333 335 336 337 327 319 313 301 295 299 328 32 32 31 26 30 34 21 37 74 75 73 79 85 78 72 85 92 91
51 46 38 33 33 25 23 22 20 22 18 17 20 20 20 16 12 10 9 12 13 11 11 10 10 11 14 13 11 14 14 13 14 10 8 12 12 9 6 360 356 357 353 352 357 358 358 359 0 2 359 355 350 337 327 327 328 327 330 333 325 322 320 299 290 317 318 17 24 32 25 32 39 23 32 70 72 73 79 84 83 74 77 83 84
61 53 41 40 42 30 26 25 24 25 21 21 23 22 21 16 13 12 12 14 15 14 13 12 14 15 17 15 14 16 14 15 15 9 12 14 8 4 1 358 358 359 356 356 358 1 4 1 360 360 356 355 353 342 327 321 320 320 325 331 326 323 323 317 338 1 11 59 39 32 19 33 40 23 33 66 69 71 76 82 86 82 80 83 82
66 62 50 46 44 34 29 29 27 26 24 25 25 25 23 17 15 14 13 15 16 17 16 17 17 17 18 16 15 16 15 16 12 11 16 11 1 357 356 358 2 359 359 1 359 3 6 359 355 357 355 353 352 347 335 323 318 319 323 328 326 325 328 334 357 10 36 72 65 57 27 33 39 18 34 59 66 68 71 78 86 85 83 83 84
74 62 54 51 46 35 32 33 31 28 28 28 28 28 25 19 16 14 14 16 16 17 19 20 18 16 18 17 15 16 15 12 11 16 17 4 354 355 355 0 6 3 3 4 1 4 5 358 354 356 356 354 353 349 344 338 330 322 323 328 324 319 318 316 326 347 45 95 83 78 47 38 40 18 34 52 60 65 68 73 81 83 82 82 84